Satellite-Ground Cal/Val Region Overpasses Predictions

Prediction of Satellite NPP Overpassing Cal/Val Region: PacNW

Region Location: (Latitude: 10.00, Longitude: 139.50) to (Latitude: 22.70, Longitude: 165.60).

Table of predicted overpasses for the next 14.0 days since TLE Epoch: 11/30/2019
Interval Starting Time Starting Location Ending Time Ending Location
1 12/01/2019 03:11:01 ( 10.05, 151.93) 12/01/2019 03:14:36 ( 22.68, 148.93)
2 12/01/2019 15:42:53 ( 22.70, 149.17) 12/01/2019 15:46:29 ( 10.02, 146.16)
3 12/02/2019 02:51:59 ( 10.05, 156.69) 12/02/2019 02:55:34 ( 22.67, 153.69)
4 12/02/2019 15:23:51 ( 22.64, 153.92) 12/02/2019 15:27:26 ( 10.02, 150.92)
5 12/03/2019 02:32:56 ( 10.05, 161.45) 12/03/2019 02:36:31 ( 22.67, 158.45)
6 12/03/2019 15:04:49 ( 22.65, 158.68) 12/03/2019 15:08:24 ( 10.02, 155.68)
7 12/04/2019 02:14:40 ( 12.75, 165.59) 12/04/2019 02:17:29 ( 22.67, 163.21)
8 12/04/2019 03:55:24 ( 10.05, 140.83) 12/04/2019 03:57:01 ( 15.75, 139.51)
9 12/04/2019 14:45:46 ( 22.65, 163.43) 12/04/2019 14:49:21 ( 10.03, 160.44)
10 12/05/2019 03:36:21 ( 10.05, 145.59) 12/05/2019 03:39:56 ( 22.68, 142.59)
11 12/05/2019 14:29:49 ( 11.79, 165.60) 12/05/2019 14:30:19 ( 10.03, 165.19)
12 12/05/2019 16:08:13 ( 22.70, 142.83) 12/05/2019 16:11:49 ( 10.02, 139.82)
13 12/06/2019 03:17:19 ( 10.05, 150.35) 12/06/2019 03:20:54 ( 22.67, 147.35)
14 12/06/2019 15:49:11 ( 22.64, 147.58) 12/06/2019 15:52:46 ( 10.02, 144.58)
15 12/07/2019 02:58:16 ( 10.05, 155.11) 12/07/2019 03:01:51 ( 22.67, 152.11)
16 12/07/2019 15:30:09 ( 22.64, 152.34) 12/07/2019 15:33:44 ( 10.02, 149.34)
17 12/08/2019 02:39:14 ( 10.05, 159.87) 12/08/2019 02:42:49 ( 22.67, 156.87)
18 12/08/2019 15:11:06 ( 22.64, 157.09) 12/08/2019 15:14:41 ( 10.02, 154.10)
19 12/09/2019 02:20:11 ( 10.05, 164.63) 12/09/2019 02:23:46 ( 22.67, 161.63)
20 12/09/2019 14:52:04 ( 22.64, 161.85) 12/09/2019 14:55:39 ( 10.02, 158.85)
21 12/10/2019 03:42:38 ( 10.00, 144.02) 12/10/2019 03:46:14 ( 22.68, 141.01)
22 12/10/2019 14:34:13 ( 18.48, 165.59) 12/10/2019 14:36:37 ( 10.02, 163.61)
23 12/10/2019 16:14:31 ( 22.69, 141.25) 12/10/2019 16:16:34 ( 15.48, 139.50)
24 12/11/2019 03:23:35 ( 10.00, 148.78) 12/11/2019 03:27:11 ( 22.68, 145.77)
25 12/11/2019 15:55:28 ( 22.69, 146.01) 12/11/2019 15:59:04 ( 10.01, 143.00)
26 12/12/2019 03:04:33 ( 10.00, 153.54) 12/12/2019 03:08:09 ( 22.68, 150.53)
27 12/12/2019 15:36:26 ( 22.69, 150.77) 12/12/2019 15:40:02 ( 10.01, 147.75)
28 12/13/2019 02:45:30 ( 10.00, 158.30) 12/13/2019 02:49:06 ( 22.69, 155.29)
29 12/13/2019 15:17:23 ( 22.69, 155.53) 12/13/2019 15:20:59 ( 10.01, 152.51)
30 12/14/2019 02:26:28 ( 10.00, 163.06) 12/14/2019 02:30:04 ( 22.69, 160.04)


NCC Satellite Cal/Val Overpasses Prediction Service
